Weather History for Piney Island, NC

Change the Weather History Date:

Friday, June 7, 2013

  Actual Average (KMRH) Record (KMRH)
Temperature  
Mean Temperature 78 °F -  
Max Temperature 84 °F 82 °F 91 °F (2008)
Min Temperature 75 °F 66 °F 57 °F (1977)
Cooling Degree Days 14    
Growing Degree Days 28 (Base 50)    
Moisture  
Dew Point 74 °F    
Average Humidity 88    
Maximum Humidity 100    
Minimum Humidity 74    
Precipitation  
Precipitation 1.98 in - - ()
Sea Level Pressure  
Sea Level Pressure 29.72 in    
Wind  
Wind Speed 17 mph (South)    
Max Wind Speed 36 mph    
Max Gust Speed 48 mph    
Visibility 6 miles    
Events Fog , Rain    
Averages and records for this station are not official NWS values.
T = Trace of Precipitation, MM = Missing Value Source: NWS Daily Summary

Daily Weather History Graph

Daily Weather History Graph

Search for Another Location

Airport:

Trip Planner

Search our weather history database for the weather conditions in past years. The results will help you decide how hot, cold, wet, or windy it might be!

Date:

Astronomy

Jun. 07, 2013 Rise Set
Actual Time 5:51 AM EDT 8:18 PM EDT
Civil Twilight 5:22 AM EDT 8:47 PM EDT
Nautical Twilight 4:45 AM EDT 9:24 PM EDT
Astronomical Twilight 4:05 AM EDT 10:04 PM EDT
Moon 5:10 AM EDT (6/7) 7:32 PM EDT (6/7)
Length of Visible Light 15h 25m
Length of Day
14h 26m
Waning Crescent, 1% of the Moon is Illuminated
Jun 7
Waning Crescent
Jun 8
New
Jun 16
First Quarter
Jun 23
Full
Jun 30
Last Quarter

Hourly Weather History & Observations

Time (EDT) Temp. Heat Index Dew Point Humidity Pressure Visibility Wind Dir Wind Speed Gust Speed Precip Events Conditions
12:56 AM 75.9 °F - 73.0 °F 91% 29.91 in 10.0 mi SE 5.8 mph - 0.01 in Rain Light Rain
1:56 AM 75.9 °F - 73.9 °F 94% 29.88 in 10.0 mi ESE 6.9 mph - 0.01 in Rain Light Rain
2:56 AM 77.0 °F - 73.9 °F 90% 29.84 in 9.0 mi ESE 11.5 mph - 0.01 in Rain Light Rain
3:21 AM 77.0 °F - 75.2 °F 94% 29.81 in 7.0 mi ESE 11.5 mph - 0.04 in Rain Rain
3:37 AM 77.0 °F - 75.2 °F 94% 29.81 in 6.0 mi ESE 13.8 mph - 0.06 in Rain Rain
3:56 AM 77.0 °F - 75.0 °F 94% 29.81 in 6.0 mi ESE 12.7 mph 20.7 mph 0.08 in Rain Light Rain
4:10 AM 77.0 °F - 75.2 °F 94% 29.79 in 2.5 mi ESE 15.0 mph 23.0 mph 0.11 in Rain Heavy Rain
4:25 AM 77.0 °F - 75.2 °F 94% 29.80 in 2.5 mi SSE 19.6 mph 25.3 mph 0.26 in Rain Heavy Rain
4:53 AM 75.0 °F - 75.0 °F 100% 29.80 in 3.0 mi SSE 13.8 mph - 0.56 in Rain Heavy Rain
5:40 AM 75.2 °F - 75.2 °F 100% 29.75 in 2.5 mi SE 16.1 mph 27.6 mph 0.22 in Rain Rain
5:56 AM 75.9 °F - 75.9 °F 100% 29.76 in 1.8 mi SE 11.5 mph 20.7 mph 0.38 in Rain Heavy Rain
6:54 AM 75.2 °F - - N/A% 29.75 in 8.0 mi South 17.3 mph 24.2 mph 0.47 in   Mostly Cloudy
6:56 AM 75.9 °F - - N/A% 29.76 in 8.0 mi South 17.3 mph 24.2 mph 0.47 in   Mostly Cloudy
9:56 AM 82.0 °F 89.4 °F 75.9 °F 82% 29.74 in 8.0 mi South 19.6 mph 32.2 mph 0.01 in   Overcast
10:56 AM 82.0 °F 90.2 °F 77.0 °F 85% 29.72 in 6.0 mi South 17.3 mph 38.0 mph 0.00 in Rain Light Rain
11:56 AM 82.9 °F 90.2 °F 75.0 °F 77% 29.70 in 8.0 mi South 21.9 mph 32.2 mph 0.00 in   Overcast
12:09 PM 80.6 °F 86.2 °F 75.2 °F 84% 29.69 in 1.5 mi South 24.2 mph 36.8 mph 0.03 in   Haze
12:12 PM 80.6 °F 86.2 °F 75.2 °F 84% 29.69 in 0.5 mi South 21.9 mph 33.4 mph 0.13 in Fog , Rain Heavy Rain
12:22 PM 78.8 °F - 77.0 °F 94% 29.68 in 1.0 mi South 18.4 mph 32.2 mph 0.17 in Rain Light Rain
12:33 PM 80.6 °F 88.1 °F 78.8 °F 94% 29.69 in 3.0 mi South 24.2 mph 33.4 mph 0.21 in Rain Light Rain
12:56 PM 82.0 °F 89.4 °F 75.9 °F 82% 29.68 in 6.0 mi South 26.5 mph 36.8 mph 0.21 in   Haze
1:32 PM 80.6 °F 86.2 °F 75.2 °F 84% 29.65 in 1.8 mi South 28.8 mph 39.1 mph 0.02 in Rain Light Rain
1:39 PM 78.8 °F - 75.2 °F 89% 29.66 in 0.5 mi South 26.5 mph 41.4 mph 0.18 in Fog , Rain Heavy Rain
1:48 PM 75.2 °F - 75.2 °F 100% 29.65 in 1.0 mi South 26.5 mph 42.6 mph 0.20 in Rain Light Rain
1:56 PM 80.1 °F 85.8 °F 77.0 °F 90% 29.66 in 10.0 mi South 28.8 mph 41.4 mph 0.20 in   Mostly Cloudy
2:08 PM 80.6 °F 87.1 °F 77.0 °F 89% 29.63 in 6.0 mi South 29.9 mph 43.7 mph N/A   Mostly Cloudy
2:16 PM 77.0 °F - 75.2 °F 94% 29.63 in 1.8 mi SSW 32.2 mph 48.3 mph 0.02 in   Mostly Cloudy
2:28 PM 78.8 °F - 75.2 °F 89% 29.63 in 3.0 mi South 28.8 mph 44.9 mph 0.04 in Rain Light Rain
2:56 PM 80.1 °F 85.4 °F 75.9 °F 87% 29.63 in 10.0 mi SSW 29.9 mph 40.3 mph 0.04 in   Mostly Cloudy
3:56 PM 78.1 °F - 73.0 °F 84% 29.62 in 4.0 mi SSW 35.7 mph 47.2 mph 0.00 in Rain Light Rain
4:01 PM 77.0 °F - 73.4 °F 89% 29.61 in 2.5 mi SSW 28.8 mph 47.2 mph 0.00 in Rain Light Rain
4:06 PM 77.0 °F - 73.4 °F 89% 29.61 in 3.0 mi SSW 26.5 mph 43.7 mph 0.00 in Rain Light Rain
4:32 PM 78.8 °F - 73.4 °F 83% 29.60 in 4.0 mi SSW 29.9 mph 43.7 mph 0.00 in Rain Light Rain
4:56 PM 80.1 °F 84.2 °F 73.0 °F 79% 29.62 in 10.0 mi SSW 33.4 mph 46.0 mph 0.00 in   Overcast
5:56 PM 80.1 °F 84.2 °F 73.0 °F 79% 29.63 in 10.0 mi SSW 25.3 mph 41.4 mph N/A   Mostly Cloudy
6:21 PM 80.6 °F 85.4 °F 73.4 °F 79% 29.64 in 10.0 mi SW 26.5 mph 41.4 mph N/A   Scattered Clouds
6:56 PM 80.1 °F 84.2 °F 73.0 °F 79% 29.68 in 10.0 mi SW 26.5 mph 34.5 mph N/A   Scattered Clouds
7:56 PM 79.0 °F - 70.0 °F 74% 29.73 in 10.0 mi SW 19.6 mph 27.6 mph N/A   Overcast
8:56 PM 79.0 °F - 70.0 °F 74% 29.78 in 10.0 mi SW 17.3 mph 27.6 mph N/A   Overcast
9:56 PM 77.0 °F - 70.0 °F 79% 29.83 in 10.0 mi WSW 13.8 mph 20.7 mph N/A   Partly Cloudy
10:56 PM 77.0 °F - 70.0 °F 79% 29.87 in 10.0 mi WSW 15.0 mph 21.9 mph N/A   Clear
11:56 PM 75.9 °F - 71.1 °F 85% 29.89 in 10.0 mi SSW 6.9 mph - N/A   Partly Cloudy